Weather History for KSWF - December, 2013

Change the Weather History Date:

Wednesday, December 25, 2013

  Actual Average Record
Temperature  
Mean Temperature 18 °F -  
Max Temperature 24 °F 35 °F 60 °F (2014)
Min Temperature 12 °F 21 °F -9 °F (1980)
Degree Days  
Heating Degree Days 47    
Moisture  
Dew Point 10 °F    
Average Humidity 66    
Maximum Humidity 79    
Minimum Humidity 50    
Precipitation  
Precipitation 0.00 in - - ()
Sea Level Pressure  
Sea Level Pressure 30.45 in    
Wind  
Wind Speed 8 mph (West)    
Max Wind Speed 17 mph    
Max Gust Speed -    
Visibility 14 miles    
Events      
Averages and records for this station are not official NWS values.
T = Trace of Precipitation, MM = Missing Value Source: NWS Daily Summary

Daily Weather History Graph

Daily Weather History Graph

Search for Another Location

Airport or City:

Trip Planner

Search our weather history database for the weather conditions in past years. The results will help you decide how hot, cold, wet, or windy it might be!

Date:

Astronomy

Dec. 25, 2013 Rise Set
Actual Time 7:21 AM EST 4:32 PM EST
Civil Twilight 6:49 AM EST 5:03 PM EST
Nautical Twilight 6:14 AM EST 5:38 PM EST
Astronomical Twilight 5:41 AM EST 6:12 PM EST
Moon No Moon Rise 11:38 AM EST (12/25)
Length of Visible Light 10h 13m
Length of Day
9h 10m
Waning Gibbous, 49% of the Moon is Illuminated
Dec 25
Waning Gibbous
Jan 1
New
Jan 7
First Quarter
Jan 15
Full
Jan 24
Last Quarter

Hourly Weather History & Observations

Time (EST) Temp. Windchill Dew Point Humidity Pressure Visibility Wind Dir Wind Speed Gust Speed Precip Events Conditions
1:45 AM 17.6 °F 2.2 °F 6.8 °F 63% 30.37 in 10.0 mi WNW 17.3 mph - N/A   Clear
3:45 AM 15.8 °F 8.6 °F 6.8 °F 68% 30.41 in 10.0 mi WSW 4.6 mph - N/A   Clear
4:45 AM 15.8 °F 8.6 °F 6.8 °F 68% 30.41 in 10.0 mi WSW 4.6 mph - N/A   Clear
5:45 AM 14.0 °F 5.1 °F 6.8 °F 73% 30.44 in 10.0 mi WNW 5.8 mph - N/A   Clear
6:45 AM 14.0 °F 2.0 °F 6.8 °F 73% 30.46 in 15.0 mi WNW 9.2 mph - N/A   Clear
7:45 AM 12.2 °F - 6.8 °F 79% 30.48 in 20.0 mi Calm Calm - N/A   Clear
8:45 AM 15.8 °F 7.2 °F 8.6 °F 73% 30.49 in 20.0 mi NW 5.8 mph - N/A   Clear
9:45 AM 17.6 °F 7.3 °F 8.6 °F 68% 30.50 in 20.0 mi WNW 8.1 mph - N/A   Clear
12:45 PM 24.8 °F - 8.6 °F 50% 30.47 in 20.0 mi North - - N/A   Clear
1:45 PM 23.0 °F 15.8 °F 10.4 °F 59% 30.46 in 20.0 mi Variable 5.8 mph - N/A   Mostly Cloudy
2:45 PM 23.0 °F 15.8 °F 10.4 °F 59% 30.48 in 20.0 mi Variable 5.8 mph - N/A   Mostly Cloudy
3:45 PM 23.0 °F 15.8 °F 10.4 °F 59% 30.48 in 20.0 mi Variable 5.8 mph - N/A   Mostly Cloudy
4:45 PM 21.2 °F - 10.4 °F 63% 30.48 in 10.0 mi North - - N/A   Scattered Clouds
5:45 PM 21.2 °F 14.9 °F 12.2 °F 68% 30.48 in 10.0 mi ENE 4.6 mph - N/A   Mostly Cloudy
7:45 PM 21.2 °F - 12.2 °F 68% 30.48 in 10.0 mi Calm Calm - N/A   Mostly Cloudy
8:45 PM 21.2 °F 14.9 °F 12.2 °F 68% 30.44 in 10.0 mi SSE 4.6 mph - N/A   Mostly Cloudy
9:45 PM 21.2 °F - 12.2 °F 68% 30.45 in 10.0 mi Calm Calm - N/A   Mostly Cloudy
10:45 PM 23.0 °F 17.0 °F 12.2 °F 63% 30.44 in 10.0 mi SE 4.6 mph - N/A   Overcast
11:45 PM 23.0 °F 17.0 °F 14.0 °F 68% 30.41 in 10.0 mi Variable 4.6 mph - N/A   Overcast